This is the latest recevied weather packets stored in our database for station/object W1LBM. If no packets are shown the sender has not sent any weather packets the latest 10 day(s).
| Time | Temp. | Humidity | Pressure | Rain* | Wind** | Luminosity | Snow |
|---|---|---|---|---|---|---|---|
| 1777839301 | 11.67° C | 39% | 1009.6 hPa | 0 mm | - | 179 W/m² | - |
| 1777838999 | 11.11° C | 42% | 1009.5 hPa | 0 mm | - | 168 W/m² | - |
| 1777838695 | 11.67° C | 45% | 1009.4 hPa | 0 mm | - | 158 W/m² | - |
| 1777838391 | 11.11° C | 42% | 1009.5 hPa | 0 mm | - | 196 W/m² | - |
| 1777838089 | 11.11° C | 41% | 1009.3 hPa | 0 mm | - | 174 W/m² | - |
| 1777837785 | 11.11° C | 42% | 1009.5 hPa | 0 mm | - | 135 W/m² | - |
| 1777837483 | 11.11° C | 41% | 1009.4 hPa | 0 mm | - | 105 W/m² | - |
| 1777837178 | 11.11° C | 43% | 1009.4 hPa | 0 mm | - | 110 W/m² | - |
| 1777836873 | 11.67° C | 42% | 1009.3 hPa | 0 mm | - | 117 W/m² | - |
| 1777836569 | 11.67° C | 42% | 1009.2 hPa | 0 mm | - | 180 W/m² | - |
| 1777836266 | 12.22° C | 41% | 1009.3 hPa | 0 mm | - | 233 W/m² | - |
| 1777835961 | 12.22° C | 42% | 1009.4 hPa | 0 mm | - | 371 W/m² | - |
| 1777835660 | 11.67° C | 45% | 1009.2 hPa | 0 mm | - | 340 W/m² | - |
| 1777835355 | 11.11° C | 45% | 1009.3 hPa | 0 mm | - | 268 W/m² | - |
| 1777835053 | 11.11° C | 44% | 1009.4 hPa | 0 mm | - | 206 W/m² | - |
| 1777834749 | 11.67° C | 45% | 1009.4 hPa | 0 mm | - | 236 W/m² | - |
| 1777834446 | 11.67° C | 44% | 1009.3 hPa | 0 mm | - | 189 W/m² | - |
| 1777834145 | 11.67° C | 45% | 1009.1 hPa | 0 mm | - | 174 W/m² | - |
| 1777833842 | 11.67° C | 43% | 1009.4 hPa | 0 mm | - | 167 W/m² | - |
| 1777833538 | 11.67° C | 42% | 1009.3 hPa | 0 mm | - | 273 W/m² | - |
| 1777833235 | 11.67° C | 44% | 1009.3 hPa | 0 mm | - | 409 W/m² | - |
| 1777832932 | 11.11° C | 42% | 1009.3 hPa | 0 mm | - | 307 W/m² | - |
| 1777832631 | 11.11° C | 42% | 1009.3 hPa | 0 mm | - | 224 W/m² | - |
| 1777832328 | 11.11° C | 43% | 1009.4 hPa | 0 mm | - | 135 W/m² | - |
| 1777832025 | 11.11° C | 45% | 1009.2 hPa | 0 mm | - | 138 W/m² | - |
* Rain latest hour (hover to see other rain measurements)
** Current wind speed in m/s (hover to see current wind gust speed)